{"data":{"norad_id":55782,"intl_designator":"2023-028AT","name":"STARLINK-5826","alt_names":[],"object_type":"PAYLOAD","status":"ACTIVE","operator":null,"country":"US","launch_date":"2023-03-03","launch_site_code":"AFWTR","launch_vehicle":null,"mission":null,"orbit_class":"UNKNOWN","rcs_meters":null,"size_class":null,"mass_kg":null,"dimensions":null,"purposes":["comms"],"wikipedia_slug":null,"has_3d_model":false,"image_url":null,"decayed_at":null,"tle_current":{"epoch":"2026-09-20T22:00:03.000096Z","epoch_age_seconds":67148,"freshness":"FRESH","line1":"1 55782U 23028AT  26263.91670139  .00082945  00000+0  55106-2 0  9993","line2":"2 55782  70.0026  72.3150 0002994 230.9281 256.8953 15.06727521  5527","mean_motion":15.06727521,"eccentricity":0.0002994,"inclination_deg":70.0026,"raan_deg":72.315,"arg_perigee_deg":230.9281,"mean_anomaly_deg":256.8953,"bstar":0.0055106,"rev_number":552,"period_min":95.571361107434,"perigee_km":544.13478620865,"apogee_km":548.28108395578,"semimajor_km":6924.3449350822,"source":"CELESTRAK","updated_at":"2026-09-21T09:00:33.319675Z"}}}